FW6403 Weather Reports


Display with metric or nautical units.
time (UTC)temp
F
wind
direction
speed
MPH
gust
MPH
rain 1hr
in
rain 24hr
in
rain mn
in
humidity
%
barometer
mb
20260506143056 75 360 1.0 6.0 0.00 0.02 0.00 62 1008.0
20260506141557 74 360 1.0 4.0 0.00 0.02 0.00 62 1008.3
20260506140101 73 360 1.0 4.0 0.00 0.02 0.00 67 1008.2
20260506134556 73 360 1.0 6.0 0.00 0.03 0.00 73 1008.3
20260506133054 73 360 1.0 6.0 0.00 0.03 0.00 70 1008.4
20260506131607 72 0 0.0 5.0 0.00 0.03 0.00 72 1008.5
20260506130057 72 360 2.0 8.0 0.00 0.03 0.00 71 1008.5
20260506124556 71 89 1.0 7.0 0.00 0.03 0.00 77 1008.7
20260506123058 70 39 1.0 8.0 0.00 0.03 0.00 79 1008.8
20260506121600 69 118 2.0 7.0 0.00 0.03 0.00 83 1008.7
20260506114556 66 117 0.0 7.0 0.00 0.05 0.00 90 1008.9
20260506113104 65 114 1.0 9.0 0.00 0.05 0.00 92 1008.9
20260506111557 64 167 2.0 9.0 0.00 0.05 0.00 93 1009.1
20260506110058 63 108 2.0 8.0 0.00 0.05 0.00 93 1009.1
20260506104607 63 76 2.0 7.0 0.00 0.07 0.00 92 1009.2
20260506103056 64 88 1.0 6.0 0.00 0.07 0.00 89 1009.6
20260506101557 64 99 2.0 7.0 0.00 0.07 0.00 85 1009.8
20260506100114 65 81 2.0 7.0 0.00 0.07 0.00 83 1009.6
20260506094600 64 47 2.0 8.0 0.00 0.09 0.00 85 1009.6
20260506093104 64 120 2.0 7.0 0.00 0.09 0.00 86 1009.5
20260506091603 63 83 3.0 9.0 0.00 0.09 0.00 85 1009.6
20260506090100 63 115 3.0 8.0 0.00 0.09 0.00 85 1009.5
20260506084604 64 95 1.0 7.0 0.00 0.12 0.00 87 1009.4
20260506083110 63 69 1.0 8.0 0.00 0.12 0.00 88 1009.3
20260506081558 61 75 1.0 7.0 0.00 0.12 0.00 92 1009.4
20260506073057 59 360 1.0 5.0 0.00 0.17 0.00 95 1009.6
20260506071559 59 360 1.0 9.0 0.00 0.17 0.00 96 1009.5
20260506061556 59 360 1.0 4.0 0.00 0.19 0.00 97 1010.1
20260506050104 58 360 2.0 6.0 0.00 0.20 0.00 96 1010.5
20260506044557 57 0 0.0 2.0 0.00 0.20 0.00 96 1010.7
20260506043056 57 360 1.0 4.0 0.00 0.20 0.00 96 1010.5
20260506041602 57 0 1.0 4.0 0.00 0.20 0.00 96 1010.6
20260506040110 57 360 0.0 4.0 0.00 0.20 0.00 96 1010.4
20260506034555 57 0 1.0 4.0 0.00 0.20 0.00 96 1010.3
20260506033056 57 360 1.0 4.0 0.00 0.20 0.00 95 1010.4
20260506031602 56 0 0.0 2.0 0.00 0.20 0.00 96 1010.4
20260506030107 56 0 0.0 2.0 0.00 0.20 0.00 95 1010.3
20260506024600 56 360 1.0 4.0 0.00 0.20 0.00 95 1010.8
20260506023057 56 0 0.0 3.0 0.00 0.20 0.00 95 1010.9
20260506021601 56 0 1.0 4.0 0.00 0.20 0.00 95 1010.9
20260506020055 56 360 2.0 8.0 0.00 0.20 0.00 95 1010.9
20260506014603 56 360 2.0 6.0 0.00 0.20 0.00 94 1011.0
20260506013056 56 360 2.0 5.0 0.00 0.19 0.00 94 1011.2
20260506011556 56 360 1.0 5.0 0.00 0.19 0.00 94 1011.5
20260506010105 57 360 1.0 5.0 0.00 0.19 0.00 93 1011.9
20260506004556 57 360 0.0 3.0 0.00 0.19 0.00 93 1012.0
20260506003058 57 0 0.0 3.0 0.00 0.19 0.00 93 1012.2
20260506001601 57 0 1.0 2.0 0.00 0.19 0.00 92 1012.0
20260506000059 56 0 0.0 3.0 0.00 0.19 0.00 92 1012.1
20260505234557 56 0 0.0 3.0 0.00 0.19 0.00 92 1012.3
20260505233116 56 360 1.0 4.0 0.00 0.19 0.00 92 1012.3
20260505231557 57 360 1.0 4.0 0.00 0.19 0.00 92 1012.8
20260505230058 57 360 1.0 3.0 0.00 0.19 0.00 92 1012.8
20260505224611 56 0 0.0 3.0 0.00 0.19 0.00 93 1012.7
20260505223100 56 360 0.0 4.0 0.00 0.19 0.00 93 1012.7
20260505221605 56 360 1.0 5.0 0.00 0.19 0.00 93 1012.7
20260505220108 56 0 0.0 1.0 0.00 0.19 0.00 92 1012.7
20260505214606 56 0 0.0 0.0 0.00 0.19 0.19 92 1012.9
20260505213123 56 0 0.0 2.0 0.00 0.19 0.19 91 1013.1
20260505211558 56 0 0.0 3.0 0.00 0.19 0.19 91 1013.3
20260505210106 57 360 1.0 5.0 0.00 0.19 0.19 91 1013.4
20260505204557 57 360 0.0 3.0 0.00 0.19 0.19 90 1013.2
20260505203059 57 0 0.0 3.0 0.00 0.19 0.19 90 1013.2
20260505201557 58 360 1.0 4.0 0.00 0.19 0.19 89 1013.3
20260505200056 58 360 2.0 5.0 0.00 0.19 0.19 88 1013.1
20260505194601 59 0 2.0 4.0 0.00 0.19 0.19 88 1013.2
20260505193114 59 360 0.0 3.0 0.00 0.19 0.19 87 1013.0
20260505191559 60 0 0.0 2.0 0.00 0.19 0.19 87 1012.9
20260505190056 60 0 0.0 2.0 0.00 0.19 0.19 86 1012.8
20260505184556 60 0 0.0 3.0 0.00 0.19 0.19 86 1012.7
20260505183056 61 360 0.0 3.0 0.00 0.19 0.19 85 1012.5
20260505181555 62 360 1.0 3.0 0.00 0.19 0.19 84 1012.5
20260505180058 63 0 1.0 4.0 0.00 0.19 0.19 83 1012.4
20260505174558 63 360 1.0 3.0 0.00 0.19 0.19 82 1012.3
20260505173059 64 360 1.0 6.0 0.00 0.19 0.19 81 1012.3
20260505171556 64 0 1.0 4.0 0.00 0.19 0.19 81 1012.2
20260505170100 65 0 1.0 5.0 0.00 0.19 0.19 81 1012.1
20260505164559 65 5 2.0 5.0 0.00 0.19 0.19 81 1012.1
20260505163059 66 0 1.0 6.0 0.00 0.18 0.18 80 1012.2
20260505161602 66 42 2.0 7.0 0.00 0.18 0.18 79 1012.2
20260505153108 67 78 2.0 6.0 0.00 0.18 0.18 76 1012.4
20260505151604 66 0 1.0 4.0 0.00 0.18 0.18 78 1012.4